Showing default

FALCONSAT-6, 43815

Orbit data source: Space-Track

FALCONSAT-6, 43815 is a payload satellite owned by USAF SMC (US) in SSO that was launched on Mon, 03 Dec 2018 UTC via an FALCON 9 launch vehicle from the Air Force Western Test Range (AFWTR). Payload-class satellites include a variety of spacecraft equipped with specific instruments for various scientific and technological missions. These include communications satellites like Starlink; space stations such as the ISS; scientific satellites like the Hubble; Earth observation satellites from companies like Planet Labs, Umbra, and HawkEye 360; GPS; miniature CubeSats for education and research; and military/defense satellites.

Loading next visibility...
Identifier
43815, 2018-099BK
Orbit
SSO
Country
Flag of USUS
Related business
Manufacturer
USAF Academy
Mission
Operational Defense Technology
Bus & Motor
FALCONSAT, Unknown motor
Mass
181 kg wet, 181 kg dry
Launch date (UTC)
2018-12-03 (7 years ago)
Launch vehicle
FALCON 9
Launch site
Air Force Western Test Range (AFWTR)
Object type
Payload
Rocket body
Debris
Shape & HBR
Box + 1 Ant, 2.0 m
Radar Cross Section
0.551 m², Medium (>0.1 m² and < 1m²)

Expand to show TLE details & history
Last TLE update: 13 hours ago

TLE from 13 hours ago
0 FALCONSAT-6
1 43815U 18099BK  26124.76164259  .00003949  00000-0  15115-3 0  9994
2 43815  97.3809 201.2391 0017339  96.3688  22.1071 15.27009150407105
Epoch: 2026-05-04T18:16Z
TLE epoch observation values (Epoch: 2026-05-04T18:16:45.919Z)
Latitude
60.68838°
Longitude
-102.33373°
Altitude
484.121 km
Speed
7.635 km/s
True Right ascension
02h 18m 00s
True Declination
60° 32' 08"
Sunlit
Object was in daylight at epoch
Visualization orbit readout
Latitude
Unknown
Longitude
Unknown
Altitude
Unknown
Speed
Unknown
Apparent Right ascension
Unknown
Apparent Declination
Unknown
Sunlit
N/A
Visualization observer readout
Local Sidereal Time
15:11:32
Azimuth
Unknown
Elevation
Unknown
Doppler factor
Unknown
Orbital elements
Apogee altitude
493.609 km
Perigee altitude
469.82 km
Semi-major axis
6,859.851 km
Eccentricity
0.00173
Inclination
97.3809°
RAAN
201.2391°
Arg. of periapsis
96.3688°
True anomaly
22.18203°
Mean anomaly
22.1071°
Eccentric anomaly
22.14455°
Mean motion
3.82007 °/min
Orbital period
94.24 mins
BSTAR
0.00015115
Loading maneuver chart data...
Computing Atmospheric mass density...
Loading historical data...
Loading historical data...
Loading historical data...
Loading historical data...
Loading historical data...
Loading historical data...
Loading historical data...

Documentation

Showing up to 5 results
|